sat.trackr.live / text

‹ back to catalog

ONEWEB-0693

NORAD 61601 · 2024-188H

PAYLOAD ACTIVE UNKNOWN

§ Identity

Operator
Country
UK
Launch date
2024-10-20
Launch site
AFWTR
Launch vehicle
Mass (kg)
RCS (m²)

Purposes: comms

External: N2YO · Heavens-Above · Gunter

§ Orbital elements

Epoch: 2026-05-25T02:39:28.928736Z

Period
109.29 min
Inclination
87.9144°
Eccentricity
0.0002135
Mean motion
13.17650524 rev/d
Perigee alt
1,192.1 km
Apogee alt
1,195.3 km
Semi-major
7,571.8 km
B*
-1.9660e-5
RAAN
10.4875°
Arg perigee
62.1120°
Mean anomaly
298.0228°
Rev number
8,284

§ Raw data

ONEWEB-06931 61601U 24188H   26145.11075149  .00000005  00000+0 -19660-4 0  99942 61601  87.9144  10.4875 0002135  62.1120 298.0228 13.17650524 82844

JSON: /api/v1/satellites/61601 · /tle

For live sub-satellite position, see the globe view (requires WebGL).

§ Visibility from observer

Set your observer location to see the next 7 days of passes ≥ 10°. The values pass through the URL so the page stays shareable.

No JS? Fill the form by hand. The geolocation button needs JavaScript.